This demonstration page uses our WeatherBlox Daily Observations layout. Learn more.

Left ArrowRight Arrow

44.8408, -93.29828

Hourly Observations for November 14, 2019

Temp ( °F °C ) Dew Point ( °F °C ) Humidity (%) Winds ( mph kmh ) Pressure ( in mb ) Visibility ( mi km ) Precip ( " mm )
12:53 am 00:53 Cloudy 27 -2.8 18 -7.8 69 69 NW 6 9 30.14 1021 10 16 0.00 0.00
1:53 am 01:53 Cloudy 26 -3.3 18 -7.8 71 71 WNW 9 15 30.16 1021 10 16 0.00 0.00
2:53 am 02:53 Cloudy 26 -3.3 17 -8.3 69 69 NW 10 17 30.17 1022 10 16 0.00 0.00
3:53 am 03:53 Cloudy 24 -4.4 15 -9.4 68 68 NNW 16 26 30.20 1023 10 16 0.00 0.00
4:53 am 04:53 Cloudy 23 -5 14 -10 68 68 NW 10 17 30.22 1023 10 16 0.00 0.00
5:53 am 05:53 Cloudy 22 -5.6 14 -10 71 71 WNW 12 19 30.24 1024 10 16 0.00 0.00
6:53 am 06:53 Mostly Cloudy 20 -6.7 11 -11.7 68 68 NNW 10 17 30.26 1025 10 16 0.00 0.00
7:53 am 07:53 Mostly Cloudy 21 -6.1 12 -11.1 68 68 WNW 7 11 30.28 1025 10 16 0.00 0.00
8:53 am 08:53 Cloudy 22 -5.6 13 -10.6 68 68 W 13 20 30.28 1026 10 16 0.00 0.00
9:10 am 09:10 Partly Cloudy 22 -5.6 11 -11.7 63 63 W 14 22 30.31 1026 10 16 0.00 0.00
9:53 am 09:53 Sunny 23 -5 12 -11.1 63 63 W 10 17 30.30 1026 10 16 0.00 0.00
10:53 am 10:53 Sunny 24 -4.4 12 -11.1 60 60 W 10 17 30.28 1025 10 16 0.00 0.00
11:53 am 11:53 Sunny 27 -2.8 13 -10.6 55 55 W 8 13 30.27 1025 10 16 0.00 0.00
12:53 pm 12:53 Mostly Sunny 28 -2.2 14 -10 56 56 W 13 20 30.27 1025 10 16 0.00 0.00
1:53 pm 13:53 Mostly Sunny 29 -1.7 14 -10 54 54 SW 14 22 30.24 1024 10 16 0.00 0.00
2:53 pm 14:53 Mostly Cloudy 31 -0.6 16 -8.9 54 54 W 10 17 30.23 1024 10 16 0.00 0.00
3:53 pm 15:53 Partly Cloudy 31 -0.6 16 -8.9 54 54 SSW 9 15 30.19 1023 10 16 0.00 0.00
4:53 pm 16:53 Mostly Clear 31 -0.6 18 -7.8 59 59 SW 10 17 30.21 1023 10 16 0.00 0.00
5:53 pm 17:53 Clear 30 -1.1 19 -7.2 64 64 SW 8 13 30.21 1023 10 16 0.00 0.00
6:53 pm 18:53 Clear 29 -1.7 19 -7.2 66 66 SW 7 11 30.20 1023 10 16 0.00 0.00
7:53 pm 19:53 Clear 30 -1.1 20 -6.7 66 66 SW 6 9 30.20 1023 10 16 0.00 0.00
8:53 pm 20:53 Clear 30 -1.1 21 -6.1 69 69 WSW 5 7 30.20 1023 10 16 0.00 0.00
9:53 pm 21:53 Partly Cloudy 30 -1.1 22 -5.6 72 72 WSW 6 9 30.21 1023 10 16 0.00 0.00
10:53 pm 22:53 Mostly Clear 31 -0.6 24 -4.4 76 76 W 3 6 30.22 1024 10 16 0.00 0.00
11:53 pm 23:53 Mostly Cloudy 30 -1.1 25 -3.9 82 82 WSW 3 6 30.24 1024 10 16 0.00 0.00

Powered by AerisWeather